Regional Weather Roundup
Issued by NWS

Home | Current Version | Previous Version | Graphics & Text | Print | Product List | Glossary On
Versions: 1 2 3 4 5 6 7 8 9 10 11 12 13 14 15 16 17 18 19 20 21 22 23 24 25 26 27 28 29 30 31 32 33 34 35 36 37 38 39 40 41 42 43 44 45 46 47 48 49 50
000
ASUS43 KTOP 241508
RWRKS

WEATHER ROUNDUP FOR KANSAS
NATIONAL WEATHER SERVICE GOODLAND KS
1000 AM CDT THU MAY 24 2018

NOTE:  "FAIR" INDICATES FEW OR NO CLOUDS BELOW 12,000 FEET WITH NO
SIGNIFICANT WEATHER AND/OR OBSTRUCTIONS TO VISIBILITY.

KSZ001>006-013>018-027>032-041>047-241600-
NORTHWEST KANSAS

CITY           SKY/WX    TMP DP  RH WIND       PRES   REMARKS
GOODLAND       MOSUNNY   72  56  57 SW15      30.01S
HAYS           CLOUDY    69  60  73 S10       30.03R
HILL CITY      SUNNY     75  59  57 S14       30.01R
RUSSELL        MOSUNNY   73  62  68 S18       30.02R
$$

KSZ061>065-074>080-084>089-241600-
SOUTHWEST KANSAS

CITY           SKY/WX    TMP DP  RH WIND       PRES   REMARKS
DODGE CITY     CLOUDY    71  55  56 S6        30.06R
ELKHART        SUNNY     72  61  67 SW25      30.09S
GARDEN CITY    CLOUDY    69  55  60 SW13G22   30.05R
GREAT BEND     CLOUDY    69  62  78 S14       30.06R
LIBERAL        SUNNY     76  59  55 SW25G35   30.06R
PRATT          MOSUNNY   69  59  71 SE8       30.07R
$$

KSZ066>073-081>083-090>101-241600-
SOUTHEAST KANSAS

CITY           SKY/WX    TMP DP  RH WIND       PRES   REMARKS
CHANUTE        SUNNY     77  70  79 S10       30.09F
COFFEYVILLE    SUNNY     76  68  76 S9        30.07F
HUTCHINSON     MOSUNNY   78  63  59 E8        30.04R
MEDICINE LODGE   N/A     70  63  78 SE5       30.05S
NEWTON         MOSUNNY   74  63  68 S9        30.07R
PARSONS        SUNNY     76  69  79 VRB6      30.09F
WICHITA INTL   MOSUNNY   76  64  66 S12       30.06S
WICHITA JABRA  MOSUNNY   74  65  73 S10       30.07R
WICHITA MCCONL MOSUNNY   74  63  67 S9        30.07R
WINFIELD       PTSUNNY   77  70  79 S9        30.09R
$$

KSZ007>012-019>026-033>040-048>060-102>105-241600-
NORTHEAST KANSAS

CITY           SKY/WX    TMP DP  RH WIND       PRES   REMARKS
CONCORDIA      SUNNY     78  62  57 SE14      30.03S
EMPORIA        PTSUNNY   76  66  71 S9        30.07F
LAWRENCE       SUNNY     78  69  73 S10       30.09S
MANHATTAN      MOSUNNY   74  67  78 SE9       30.05F
MARYSVILLE     SUNNY     79  68  69 S10       30.04F
OLATHE IND     SUNNY     77  67  71 S10       30.11F
OLATHE EXE     SUNNY     75  67  76 SE14G21   30.11S
SALINA         CLOUDY    76  64  66 SE10      30.03S
TOPEKA BILLARD PTSUNNY   75  70  84 S10       30.07S
TOPEKA FORBES  PTSUNNY   76  69  79 S9        30.08S
$$




USA.gov is the U.S. government's official web portal to all federal, state and local government web resources and services.